Regional Weather Roundup
Issued by NWS

Home | Current Version | Previous Version | Graphics & Text | Print | Product List | Glossary On
Versions: 1 2 3 4 5 6 7 8 9 10 11 12 13 14 15 16 17 18 19 20 21 22 23 24 25 26 27
000
ASUS45 KTFX 302310
RWRMT
MONTANA REGIONAL WEATHER ROUNDUP
NATIONAL WEATHER SERVICE GREAT FALLS MT
500 PM MDT MON MAY 30 2016

NOTE: "FAIR" INDICATES FEW OR NO CLOUDS BELOW 12000 FEET WITH NO
SIGNIFICANT WEATHER AND/OR OBSTRUCTIONS TO VISIBILITY.

MTZ001>007-043-310000-
WEST OF THE DIVIDE

CITY           SKY/WX    TMP DP  RH WIND       PRES   REMARKS
KALISPELL      PTSUNNY   64  39  39 CALM      30.13F
MISSOULA       MOSUNNY   70  32  24 N9        30.12F
BUTTE          MOSUNNY   60  22  23 NW13G24   30.15S
MULLAN PASS    SUNNY     54  22  28 VRB6G17   30.23F
ANACONDA         N/A     61  18  18 NW15G23   30.13S
DEER LODGE       N/A     63  23  22 NW15G26   30.14F
EUREKA           N/A     64  36  34 N3        30.14F
HAMILTON         N/A     68  25  19 W6        30.12F
LIBBY            N/A     66  34  30 CALM      30.15S
$$

MTZ008-052>055-310000-
SOUTHWEST MONTANA

CITY           SKY/WX    TMP DP  RH WIND       PRES   REMARKS
BOZEMAN        SUNNY     65  32  29 N13G21    30.09S
DILLON         SUNNY     66  19  16 N7        30.10F
W YELLOWSTONE  CLOUDY    59  21  23 NW9G24    30.14S
ENNIS          PTSUNNY   63  21  20 N12       30.17R
$$

MTZ009-010-012-014-046-048-049-054-310000-
EAST SLOPES AND CENTRAL MONTANA

CITY           SKY/WX    TMP DP  RH WIND       PRES   REMARKS
CUT BANK       MOSUNNY   58  34  40 N24G36    30.13F
GREAT FALLS    MOSUNNY   60  35  39 NW15      30.12F
MALMSTROM AFB  PTSUNNY   59  34  38 NW16G25   30.12F
HELENA         PTSUNNY   63  36  36 N15       30.10S
CHOTEAU          N/A     57  37  47 N21       30.15F
$$

MTZ011-013-016-021-045-047-050-051-310000-
NORTH CENTRAL MONTANA

CITY           SKY/WX    TMP DP  RH WIND       PRES   REMARKS
HAVRE          CLOUDY    48  44  86 W16G23    30.07F
LEWISTOWN      PTSUNNY   55  38  52 NW14G28   30.11S
N BAR RANCH      N/A     54  36  50 NW29G46   30.07S
CHINOOK          N/A     50  43  76 W18G24    30.04F
$$

MTZ017>020-022>027-061-062-310000-
NORTHEAST MONTANA

CITY           SKY/WX    TMP DP  RH WIND       PRES   REMARKS
GLASGOW        CLOUDY    62  43  49 W20G28    29.94S
JORDAN           N/A     59  43  55 NW21G29   30.00R
SIDNEY         LGT RAIN  56  53  90 NW15      29.92R
WOLF POINT     CLOUDY    56  50  80 NW9       29.95F
POPLAR           N/A     55  52  88 W15       29.93F
$$

MTZ028>42-056>058-310000-
SOUTHCENTRAL AND SOUTHEAST MONTANA

CITY           SKY/WX    TMP DP  RH WIND       PRES   REMARKS
BAKER          LGT RAIN  53  48  83 NW21G38   29.96R
BILLINGS       PTSUNNY   64  35  34 N15       30.05S
LIVINGSTON     MOSUNNY   64  36  35 N20G32    30.08R
MILES CITY     CLOUDY    62  47  57 N13       29.97F
FORSYTH          N/A     61  39  44 NW16G31   30.02R
$$

REGIONAL REPORTS...DAKOTAS

CITY           SKY/WX    TMP DP  RH WIND       PRES   REMARKS
WILLISTON      LGT RAIN  56  51  84 N8        29.90F
MINOT          CLOUDY    61  53  75 W8        29.85F
DICKINSON      CLOUDY    57  53  86 N9        29.85S
BEACH          LGT RAIN  52  52 100 NW28G44   29.95R
CROSBY         LGT RAIN  55  55 100 NW13      29.93S
WATFORD CITY   LGT RAIN  55  55 100 N10       29.89S
BISMARCK       CLOUDY    65  55  70 NE9G22    29.78F
GRAND FORKS    LGT RAIN  63  56  78 N10       29.84R
FARGO          PTSUNNY   85  45  24 S17G24    29.76F
BUFFALO SD       N/A     68  50  52 NW36G53   29.83R
RAPID CITY     MOSUNNY   70  47  43 N25G35    29.85S
$$

REGIONAL REPORTS...WYOMING/IDAHO/WASHINGTON

CITY           SKY/WX    TMP DP  RH WIND       PRES   REMARKS
GILLETTE       LGT RAIN  52  48  86 NW17      30.02R
SHERIDAN       CLOUDY    52  47  83 NW15G26   30.09R
BUFFALO WY     LGT RAIN  53  42  66 NW26G39   30.07R
CODY           CLOUDY    54  41  62 N16G23    30.08R
YELLOWSTONE LA   N/A     54  19  25 VRB7G18   30.18S
IDAHO FALLS    CLOUDY    69  32  25 S18       30.05F
SALMON         SUNNY     68  28  22 N3        30.07F
BOISE          SUNNY     75  30  19 NW16G24   30.08F
SPOKANE        MOSUNNY   70  28  21 W13       30.17F
$$

REGIONAL REPORTS...ALBERTA

CITY           SKY/WX    TMP DP  RH WIND       PRES   REMARKS
EDMONTON       LGT RAIN  50  45  81 N9        30.18R
CALGARY        MOSUNNY   59  34  38 N25G33    30.15R
LETHBRIDGE     MOSUNNY   59  39  47 NW18G31   30.13S
MEDICINE HAT   CLOUDY    50  45  81 NW21G39   30.02S
WATERTON GATE    N/A     50  45  81 SW5         N/A
MILK RIVER       N/A     55  43  62 N24G36      N/A
ONEFOUR          N/A     48  41  76 NW38G46     N/A
$$

REGIONAL REPORTS...SASKATCHEWAN

CITY           SKY/WX    TMP DP  RH WIND       PRES   REMARKS
SWIFT CURRENT  RAIN      52  48  87 E10G17    29.93R FOG
REGINA         LGT RAIN  63  50  63 NW7       29.88R
SASKATOON      CLOUDY    64  46  52 E16G22    29.96S
CYPRESS HILLS    N/A     41  39  93 NW12G23     N/A
VAL MARIE        N/A     59  46  63 NW20        N/A
ROCKGLEN         N/A     52  50  93 W5          N/A
$$




USA.gov is the U.S. government's official web portal to all federal, state and local government web resources and services.